User: anonymous   Login
Location: Bridgewater Hill Observatory
(43.5992°N, 72.6989°W)
Time: 21:44:33
(UTC-05:00)
Language:

Cosmos 1452 Rocket - Orbit

View from above orbital plane
View from above orbital plane
View from above satellite
View from above satellite

Ground track
Ground track

The orbit data is extracted from the following two-line orbital elements,

1 13992U 83031B   14329.85475361  .00000171  00000-0  68137-4 0  5676
2 13992 074.0540 280.5541 0004054 145.3414 279.4166 14.35823001654698
Epoch (UTC): 25 November 2014 20:30:50
Eccentricity: 0.0004054
inclination: 74.0540°
perigee height: 769 km
apogee height: 775 km
right ascension of ascending node: 280.5541°
argument of perigee: 145.3414°
revolutions per day: 14.35823001
mean anomaly at epoch: 279.4166°
orbit number at epoch: 65469

The dashed part of the orbit path shows where the satellite is in the earth's shadow,  

DLR